Regional Weather Roundup
Issued by NWS

Home | Current Version | Previous Version | Graphics & Text | Print | Product List | Glossary On
Versions: 1 2 3 4 5 6 7 8 9 10 11 12 13 14 15 16 17 18 19 20 21 22 23 24 25 26 27 28 29 30 31 32 33 34 35 36 37 38 39 40 41 42 43 44 45 46 47 48 49 50
000
ASUS45 KCYS 211910
RWRWY

WYOMING REGIONAL WEATHER ROUNDUP
NATIONAL WEATHER SERVICE CHEYENNE WY
100 PM MDT THU MAY 21 2015

NOTE:  "FAIR" INDICATES FEW OR NO CLOUDS BELOW 12,000 FEET
WITH NO SIGNIFICANT WEATHER AND/OR OBSTRUCTIONS TO VISIBILITY.

WYZ001-212000-
YELLOWSTONE NATIONAL PARK

CITY           SKY/WX    TMP DP  RH WIND       PRES   REMARKS
LK YELLOWSTONE   N/A     51  32  48 E6        30.12F
W YELLOWSTONE  NOT AVBL

$$
WYZ002>013-054>058-071-098>099-212000-
NORTHERN WYOMING

CITY           SKY/WX    TMP DP  RH WIND       PRES   REMARKS
JACKSON        SUNNY     57  39  51 SW8       30.07F
CODY           FAIR      57  43  58 E7        30.07F
GREYBULL       FAIR      62  36  37 NE7       30.05F
WORLAND        FAIR      60  37  42 VRB3      30.06F
SHERIDAN       FAIR      61  40  45 SE12G22   30.09F
BUFFALO        PTSUNNY   56  41  57 SE15      30.13S
GILLETTE       PTSUNNY   54  38  54 SE18      30.16F
HULETT         FAIR      61  28  29 SE12G18   30.17F
NEWCASTLE      FAIR      55  37  50 S15G22    30.19F

$$
WYZ014>020-022>026-101>103-212000-
CENTRAL WYOMING

CITY           SKY/WX    TMP DP  RH WIND       PRES   REMARKS
BIG PINEY      PTSUNNY   51  37  58 NW5       30.13F
PINEDALE       FAIR      52  36  54 S8        30.13F
DUBOIS         CLOUDY    50  36  57 SE13      30.10F
LANDER         FAIR      56  41  57 MISG      30.08F
RIVERTON       FAIR      55  39  54 SE5       30.10F
CASPER         FAIR      57  40  52 NE7       30.11F
DOUGLAS        CLOUDY    54  41  61 SE15G22   30.15F

$$
WYZ021-027>030-104>119-212000-
SOUTHERN WYOMING

CITY           SKY/WX    TMP DP  RH WIND       PRES   REMARKS
EVANSTON       PTSUNNY   51  43  74 E18G25    30.07F
KEMMERER       MOCLDY    54  39  58 E14G20    30.10F
FORT BRIDGER   CLOUDY    48  46  93 CALM      30.13S
ROCK SPRINGS   FAIR      57  44  62 SE8G18    30.09F
DIXON          FAIR      63  37  37 W5        30.10F
RAWLINS        FAIR      59  41  51 VRB7      30.12F
SARATOGA       FAIR      55  34  44 MISG      30.13S
LARAMIE        FAIR      60  34  37 VRB6      30.12F
CHEYENNE       CLOUDY    46  39  76 S15       30.18F
TORRINGTON     CLOUDY    53  41  63 SE13      30.17F
PINE BLUFFS    CLOUDY    46  39  76 SE12G17   30.21F

$$



USA.gov is the U.S. government's official web portal to all federal, state and local government web resources and services.